Location: Slemon Park
(46.4340°N, 63.8219°W)
Time: 07:53:41
(UTC-03:00)

Daily predictions for brighter satellites

Satellite Brightness Start Highest point End
(mag) Time Altitude Azimuth Time Altitude Azimuth Time Altitude Azimuth
COSMOS 2455 3.0 21:22:01 10° S 21:27:50 54° ESE 21:33:41 10° NE
Cosmos 1340 4.0 21:27:07 10° NNE 21:30:19 25° ENE 21:33:30 10° SE
Cosmos 2369 Rocket 2.4 21:27:42 10° S 21:33:10 53° ESE 21:38:42 10° NE
SPOT 5 4.0 21:29:42 10° SE 21:34:30 35° ENE 21:39:15 10° N
Helios 1A 3.2 21:31:21 10° S 21:35:33 77° WSW 21:39:47 10° NNW
Cosmos 1125 Rocket 4.1 21:32:10 10° SSE 21:36:55 36° ESE 21:41:40 10° NE
CZ-4B DEB 2.6 21:38:48 10° SSE 21:41:43 83° WSW 21:44:40 10° NNW
Resurs 01 Rocket 3.9 21:38:15 10° SSW 21:41:50 24° W 21:45:26 10° NW
Cosmos 1606 3.0 21:41:06 10° N 21:44:48 50° ENE 21:48:28 10° SSE
Cosmos 2279 Rocket 4.2 21:40:22 10° N 21:46:35 60° ENE 21:52:44 10° SSE
SAR-Lupe-4 3.6 21:43:40 10° SSE 21:47:15 88° WSW 21:50:52 10° NNW
Cosmos 1346 Rocket 3.9 21:43:29 10° NNW 21:47:16 44° W 21:51:05 10° SSW
Lacrosse 5 rocket 1.2 21:45:15 10° SSW 21:48:40 45° SE 21:52:11 10° ENE
ATLAS 5 CENTAUR R/B 2.5 21:47:44 10° NW 21:53:37 72° NE 21:59:35 12° SE
YAOGAN 6 3.6 21:51:25 10° S 21:55:01 48° W 21:58:36 10° NNW
Meteor 1-27 Rocket 4.2 21:50:12 10° N 21:55:48 48° ENE 22:00:52 12° SE
Cosmos 1939 Rocket 4.4 21:52:22 10° SSW 21:56:11 35° W 22:00:01 10° NNW
Meteor 1-10 Rocket 4.4 21:50:27 10° N 21:56:26 79° ENE 22:02:20 10° SSE
MetOp-B 4.2 21:54:43 10° SSE 22:00:03 77° ENE 22:05:26 10° NNW
Okean 1-7 3.2 21:56:19 10° NNW 22:00:45 80° W 22:05:08 10° S
Aureole 3 2.5 22:01:08 10° S 22:04:09 89° SW 22:07:11 10° N
Meteor 2-6 Rocket 4.4 21:59:34 10° N 22:05:33 85° E 22:11:32 10° SSE
H-2A R/B 2.5 22:01:31 13° SE 22:06:12 50° ENE 22:11:20 10° N
GPS 2-04 Rocket1 4.4 22:04:23 10° SW 22:06:26 14° S 22:07:35 13° SSE
Cosmos 158 Rocket 3.8 22:03:38 10° NNW 22:08:34 88° WSW 22:12:56 13° SSE
ARGOS 3.1 22:06:05 11° SSE 22:11:19 80° ENE 22:16:43 10° NNW
Meteor 1-29 3.8 22:08:30 10° N 22:11:57 54° WNW 22:15:21 10° SSW
DNEPR-1 R/B 3.7 22:10:03 10° SSW 22:15:07 62° ESE 22:19:31 10° NE
Cosmos 1408 2.8 22:19:15 10° SSW 22:22:56 72° W 22:26:42 10° N
Cosmos 1782 3.7 22:21:14 10° NNW 22:25:07 48° W 22:28:56 10° SSW
Milstar 3 4.3 22:19:15 10° SW 22:26:37 21° S 22:29:45 17° SSE
Cosmos 1733 Rocket 3.2 22:24:43 17° SSE 22:27:53 51° E 22:32:06 10° NNE
ERS-1 Rocket 3.8 22:24:11 10° S 22:29:03 49° W 22:33:57 10° NNW
SL-08 RB Rocket 3.8 22:28:54 16° S 22:32:42 81° WSW 22:37:24 10° NNW
Cosmos 1825 2.7 22:29:31 10° SSW 22:33:14 58° WNW 22:36:59 10° N
Cosmos 2344 3.7 22:26:37 10° SSW 22:34:04 60° ESE 22:42:28 10° NE
Helios 1B rocket 4.5 22:31:30 10° N 22:35:05 29° WNW 22:38:39 10° SW
BREEZE-M DEB (TANK) 3.3 22:33:03 10° WNW 22:36:18 76° SSW 22:46:57 13° ESE
Cosmos 2227 Rocket 4.0 22:34:22 10° N 22:38:36 21° NE 22:42:49 10° E
USA 215 3.6 22:35:07 19° SSE 22:39:57 56° SW 22:46:25 10° WNW
Landsat 7 3.9 22:38:35 23° SSE 22:41:33 68° ENE 22:46:18 10° N
Cosmos 2219 3.7 22:39:20 10° NNW 22:44:58 51° ENE 22:48:28 22° SE
Lacrosse 4 Rocket 2.1 22:42:29 10° NW 22:46:52 52° WSW 22:49:28 22° S
Cosmos 1346 3.5 22:44:48 10° N 22:47:22 37° ENE 22:47:34 36° E
Cosmos 1862 3.5 22:43:53 13° SSW 22:47:25 73° W 22:51:24 10° N
Cosmos 1975 Rocket 4.4 22:45:26 10° NNE 22:49:16 27° ENE 22:50:55 22° ESE
DMSP B5D2-2 4.1 22:48:58 10° NNE 22:54:10 64° ESE 22:57:39 21° S
ISS -3.1 22:52:08 10° W 22:55:21 55° NNW 22:58:33 10° ENE
Cosmos 1943 Rocket 2.6 22:49:52 10° SW 22:55:25 65° WNW 23:00:58 10° NNE
Terra 1.9 22:54:15 28° SSE 22:56:42 67° ENE 23:01:27 10° N
Cosmos 1812 3.7 22:53:38 10° N 22:57:11 33° ENE 22:58:11 28° ESE
Cosmos 2251 Rocket 3.6 22:52:31 10° NNW 22:57:46 69° ENE 23:00:27 29° SE
Gbstr 26 Del rocket 3.8 22:53:56 10° WNW 22:58:25 48° NNE 23:01:35 15° E
ATLAS CENTAUR R/B 2.6 22:59:57 23° E 22:59:57 23° E 23:02:13 10° ENE
CARTOSAT-1 3.5 22:59:11 32° SSE 23:01:08 74° ENE 23:05:28 10° N
Cosmos 1674 Rocket 3.6 22:57:55 10° NNW 23:02:15 75° W 23:04:28 28° S
Cosmos 1378 Rocket 3.7 22:58:47 10° N 23:03:12 63° ENE 23:04:59 34° SSE
SPOT 1/Viking Rocket 4.1 23:00:52 19° S 23:04:31 55° W 23:09:39 10° NNW
CENTAUR R/B 3.0 23:02:13 10° SW 23:08:21 65° NW 23:15:26 10° NE
Cosmos 1437 2.7 23:06:29 10° NNW 23:09:42 77° W 23:10:20 53° S
Cosmos 1092 Rocket 3.9 23:07:21 20° S 23:11:43 83° E 23:17:54 10° N
BREEZE M DEB (TANK) 3.3 23:03:24 10° WSW 23:12:17 84° SSE 23:15:22 10° ENE
SPOT 5 4.3 23:08:10 13° SSW 23:12:29 37° W 23:17:23 10° NNW
Nadezhda 4 Rocket 4.2 23:06:49 12° SSW 23:12:40 71° W 23:18:50 10° N
GEOS 3 Rocket 3.6 23:13:40 32° SSE 23:16:06 73° SW 23:21:23 10° NW
Cosmos 2369 Rocket 4.2 23:12:34 10° WSW 23:17:29 30° NW 23:22:29 10° N
H-2A R/B 1.9 23:16:52 43° SE 23:18:06 69° ENE 23:22:13 10° N
Cosmos 405 Rocket 3.0 23:14:33 10° N 23:18:09 46° ENE 23:18:42 42° ESE
Okean 1 4.3 23:14:53 10° N 23:18:30 32° ENE 23:19:11 30° E
Cosmos 1553 Rocket 4.5 23:17:48 10° N 23:23:58 49° ENE 23:26:43 30° SE
Okean 3 3.6 23:21:41 10° NNW 23:25:51 66° W 23:27:17 38° SSW
Lacrosse 5 rocket 3.0 23:24:41 10° W 23:27:58 31° NNW 23:31:21 10° NE
IGS 5A 3.8 23:29:14 36° SSW 23:30:39 56° W 23:34:46 10° NNW
CZ-4 R/B 3.8 23:26:47 10° NNE 23:31:23 59° E 23:32:35 44° SSE
Spot 4 3.8 23:30:06 41° SSE 23:31:46 74° ENE 23:36:35 10° N
Cosmos 2297 Rocket 3.2 23:28:24 10° NNW 23:33:41 38° NE 23:36:27 24° ESE
ATLAS 5 CENTAUR R/B 3.9 23:33:06 10° WNW 23:38:01 26° WSW 23:41:08 18° SSW
Cosmos 1867 4.1 23:35:00 10° NW 23:40:14 48° WSW 23:42:05 35° SSW
Cosmos 1908 Rocket 3.9 23:38:32 31° SSW 23:40:31 63° W 23:44:58 10° N
Cosmos 1441 Rocket 3.2 23:40:20 10° N 23:44:11 61° ENE 23:44:27 59° E
H-2A R/B 3.8 23:42:09 13° SW 23:45:51 25° W 23:50:14 10° NW
Okean 2 Rocket 3.0 23:48:28 57° SE 23:49:08 66° E 23:53:34 10° NNE
DELTA 2 DEB (DPAF) 4.1 23:48:13 55° SSE 23:49:11 83° ENE 23:53:42 10° NNW
Cosmos 1656 Rocket 4.5 23:48:51 10° SW 23:54:09 49° WNW 23:59:33 10° NNE
